Location: Unspecified
(0.0000°N, 0.0000°E)
Time: 19:03:08
(UTC+00:00)

Vanguard 2 - Pass Details

Date: 26 November 2019
Orbit: 553 x 2938 km, 32.9° (Epoch: 08 December)

Event Time Altitude Azimuth Distance (km) Brightness Sun altitude
Rises 23:36:04 0° 217° (SW) 5,328 12.1 -68.8°
Reaches altitude 10° 23:39:38 10° 209° (SSW) 4,639 11.7 -68.9°
Enters shadow 23:42:53 20° 198° (SSW) 4,132 11.3 -68.9°
Maximum altitude 23:52:18 38° 145° (SE) 3,652 - -68.9°
Exits shadow 00:06:33 13° 87° (E) 5,496 11.8 -68.5°
Drops below altitude 10° 00:07:59 10° 84° (E) 5,762 11.9 -68.4°
Sets 00:12:59 0° 77° (ENE) 6,712 12.3 -68.1°
